Weather History for Port Hope, MI

Change the Weather History Date:

Saturday, April 19, 2014

  Actual Average Record
Temperature  
Mean Temperature 36 °F -  
Max Temperature 39 °F 49 °F 81 °F (2005)
Min Temperature 33 °F 35 °F 26 °F (1997)
Degree Days  
Heating Degree Days 28    
Moisture  
Dew Point 31 °F    
Average Humidity 81    
Maximum Humidity 92    
Minimum Humidity 70    
Precipitation  
Precipitation 0.00 in - - ()
Sea Level Pressure  
Sea Level Pressure 30.45 in    
Wind  
Wind Speed 7 mph (NE)    
Max Wind Speed 14 mph    
Max Gust Speed -    
Averages and records for this station are not official NWS values.
T = Trace of Precipitation, MM = Missing Value Source: NWS Daily Summary

Daily Weather History Graph

Daily Weather History Graph

Search for Another Location

Airport:

Trip Planner

Search our weather history database for the weather conditions in past years. The results will help you decide how hot, cold, wet, or windy it might be!

Date:

Astronomy

Apr. 19, 2014 Rise Set
Actual Time 6:41 AM EDT 8:20 PM EDT
Civil Twilight 6:10 AM EDT 8:50 PM EDT
Nautical Twilight 5:33 AM EDT 9:27 PM EDT
Astronomical Twilight 4:54 AM EDT 10:07 PM EDT
Moon 12:07 AM EDT (4/19) 9:53 AM EDT (4/19)
Length of Visible Light 14h 39m
Length of Day
13h 38m
Waning Gibbous, 79% of the Moon is Illuminated
Apr 19
Waning Gibbous
Apr 22
Last Quarter
Apr 29
New
May 6
First Quarter
May 14
Full

Hourly Weather History & Observations

Time (EDT) Temp. Windchill Dew Point Humidity Pressure Visibility Wind Dir Wind Speed Gust Speed Precip Events Conditions
12:51 AM 36.0 °F 32.1 °F 30.0 °F 79% 30.40 in - NNW 4.6 mph - N/A   Unknown
1:51 AM 36.0 °F 31.1 °F 30.0 °F 79% 30.42 in - NNW 5.8 mph - N/A   Unknown
2:51 AM 35.1 °F 30.1 °F 30.9 °F 85% 30.40 in - North 5.8 mph - N/A   Unknown
3:51 AM 35.1 °F 31.0 °F 30.9 °F 85% 30.43 in - North 4.6 mph - N/A   Unknown
4:51 AM 34.0 °F 31.0 °F 32.0 °F 92% 30.45 in - Variable 3.5 mph - N/A   Unknown
5:51 AM 35.1 °F 28.6 °F 32.0 °F 89% 30.46 in - North 8.1 mph - N/A   Unknown
6:51 AM 35.1 °F 26.9 °F 32.0 °F 89% 30.49 in - North 11.5 mph - N/A   Unknown
7:51 AM 36.0 °F 27.5 °F 32.0 °F 86% 30.49 in - NNE 12.7 mph - N/A   Unknown
8:51 AM 36.0 °F 27.1 °F 32.0 °F 86% 30.51 in - NE 13.8 mph - N/A   Unknown
9:51 AM 37.0 °F 29.3 °F 32.0 °F 82% 30.51 in - ENE 11.5 mph - N/A   Unknown
10:51 AM 37.0 °F 29.3 °F 30.9 °F 79% 30.53 in - ENE 11.5 mph - N/A   Unknown
11:51 AM 37.0 °F 29.8 °F 30.9 °F 79% 30.53 in - ENE 10.4 mph - N/A   Unknown
12:51 PM 37.9 °F 32.7 °F 32.0 °F 79% 30.52 in - ENE 6.9 mph - N/A   Unknown
1:51 PM 37.9 °F 32.7 °F 32.0 °F 79% 30.50 in - ENE 6.9 mph - N/A   Unknown
2:51 PM 39.0 °F 34.0 °F 33.1 °F 79% 30.49 in - NE 6.9 mph - N/A   Unknown
3:51 PM 37.0 °F 29.8 °F 33.1 °F 86% 30.46 in - ENE 10.4 mph - N/A   Unknown
4:51 PM 37.0 °F 31.6 °F 32.0 °F 82% 30.45 in - ENE 6.9 mph - N/A   Unknown
5:51 PM 37.9 °F 33.5 °F 30.9 °F 76% 30.43 in - East 5.8 mph - N/A   Unknown
6:51 PM 37.9 °F 32.7 °F 30.9 °F 76% 30.42 in - East 6.9 mph - N/A   Unknown
7:51 PM 37.9 °F 32.7 °F 30.0 °F 73% 30.38 in - ESE 6.9 mph - N/A   Unknown
8:51 PM 37.0 °F 33.3 °F 28.9 °F 73% 30.38 in - East 4.6 mph - N/A   Unknown
9:51 PM 37.0 °F 34.5 °F 28.0 °F 70% 30.39 in - Variable 3.5 mph - N/A   Unknown
10:51 PM 34.0 °F - 28.9 °F 82% 30.39 in - Calm Calm - N/A   Unknown
11:51 PM 33.1 °F 28.7 °F 28.9 °F 85% 30.37 in - South 4.6 mph - N/A   Unknown